Regional Weather Roundup
Issued by NWS San Diego, CA

Home | Current Version | Previous Version | Text Only | Print | Product List | Glossary On
Versions: 1 2 3 4 5 6 7 8 9 10 11 12 13 14 15 16 17 18 19 20 21 22 23 24 25 26 27 28 29 30 31 32 33 34 35 36 37 38 39 40 41 42 43 44 45 46 47 48 49 50
000
ASUS46 KSGX 210910
RWRSGX

SAN DIEGO HOURLY WEATHER ROUNDUP
NATIONAL WEATHER SERVICE SAN DIEGO CA
100 AM PST SUN DEC 21 2014

NOTE: "FAIR" INDICATES FEW OR NO CLOUDS BELOW 12,000 FEET WITH NO
SIGNIFICANT WEATHER AND/OR OBSTRUCTIONS TO VISIBILITY.

CAZ042-043-060-061-PZZ750-775-211000-

GREATER SAN DIEGO AREA

CITY           SKY/WX    TMP DP  RH WIND       PRES   REMARKS
LINDBERGH FLD  MOCLDY    60  53  77 CALM      30.16S
POINT LOMA       N/A     57  53  87 E3          N/A
NATIONAL CITY    N/A     59  54  82 CALM      30.15F
CHULA VISTA      N/A     58  55  89 CALM      30.08S
IMPERIAL BEACH CLOUDY    59  56  89 CALM      30.15S
BROWN FIELD    CLOUDY    58  54  86 CALM      30.14S
MIRAMAR MCAS   MOCLDY    55  50  83 E3        30.14S
MONTGOMERY FLD CLEAR     56  52  86 CALM      30.15S

$$

NORTH SAN DIEGO COUNTY

CITY           SKY/WX    TMP DP  RH WIND       PRES   REMARKS
CAMP PENDLETON CLEAR     53  49  86 NE3       30.15S
OCEANSIDE AP   MOCLDY    54  51  90 N3        30.14F
OCEANSIDE HBR    N/A     56  54  92 NE6       30.17S
VISTA            N/A     53  49  86 CALM      30.14S
CARLSBAD       CLOUDY    58  52  80 E3        30.14S
DEL MAR          N/A     57  55  94 CALM      30.17F
LA JOLLA SCRIP   N/A     59  56  91 CALM      30.12S
FALLBROOK        N/A     53  53 100 CALM      30.18R
ESCONDIDO        N/A     53  50  89 CALM      30.18S
SAN MARCOS       N/A     55  51  87 CALM      30.14S
POWAY            N/A     51  48  89 CALM      30.17F

$$

EAST SAN DIEGO COUNTY

CITY           SKY/WX    TMP DP  RH WIND       PRES   REMARKS
RAMONA         FOG       43  42  97 CALM      30.15F VSB 1/2
SANTEE LAKES     N/A     55  51  89 CALM      30.17S
LA MESA          N/A     56  51  83 NE1       30.09F
JAMUL            N/A     53  51  91 CALM      30.16S
DESCANSO N       N/A     41  39  93 CALM      30.09S
MT. LAGUNA OBS   N/A     41  34  74 CALM      29.74F
CAMPO            N/A     48  44  86 NE3       30.11F

$$

ORANGE COUNTY AND THE LOS ANGELES BASIN

CITY           SKY/WX    TMP DP  RH WIND       PRES   REMARKS
JOHN WAYNE AP  MOCLDY    58  51  78 NE3       30.14F
LAGUNA BEACH     N/A     56  54  94 N5        30.11S
LAKE FOREST FR   N/A     51  46  81 CALM      30.06S
SANTA ANA        N/A     53  50  89 CALM      30.10F
HUNTINGTON BCH   N/A     57  54  90 CALM      30.16F
LOS ALAMITOS   FAIR      54  50  86 E6        30.14F
FULLERTON      CLEAR     54  48  80 E7        30.14S HAZE
LONG BEACH     CLEAR     56  52  86 CALM      30.14F
L.A. AP        PTCLDY    58  48  69 VRB7      30.14F
L.A. DOWNTOWN  CLEAR     53  48  83 CALM      30.14F

$$

THE INLAND EMPIRE

CITY           SKY/WX    TMP DP  RH WIND       PRES   REMARKS
CORONA         FOG       42  42 100 CALM      30.17S VSB 1
CHINO          CLEAR     46  45  96 CALM      30.17F FOG
ONTARIO        CLEAR     48  44  86 NE6       30.16S
RIVERSIDE AP   CLEAR     49  45  86 E6        30.16S FOG
RIV CYN CREST    N/A     50  50 100 CALM        N/A
MORENO VALLEY    N/A     49  48  97 CALM      29.35S
MARCH ARB      PTCLDY    44  44 100 W2        30.16S FOG
HORSETHIEF CYN   N/A     46  41  82 S3        30.17S
PERRIS           N/A     49  48  95 E1        30.15S
MENIFEE          N/A     46  46  97 CALM      30.27R
HEMET EAST       N/A     48  41  79 CALM      30.19S
FRENCH VALLEY  FAIR      46  45  93 CALM      30.16S
TEMECULA         N/A     50  49  95 CALM      30.12S

$$

SAN BERNARDINO AND RIVERSIDE COUNTY MOUNTAINS

CITY           SKY/WX    TMP DP  RH WIND       PRES   REMARKS
BIG BEAR AP    CLEAR     28  28 100 CALM      30.24R
ANGELUS OAKS     N/A     39  32  77 CALM      30.13S
PINE COVE        N/A     44  32  62 SE2       30.15R

$$

SOUTHERN DESERT INCLUDING THE COACHELLA VALLEY

CITY           SKY/WX    TMP DP  RH WIND       PRES   REMARKS
PALM SPRINGS   CLEAR     53  43  68 CALM      30.15S
THOUSAND PALMS   N/A     52  45  77 W2        30.10S
PALM DESERT      N/A     50  45  82 CALM        N/A
THERMAL        PTCLDY    48  43  82 N5        30.12R
BLYTHE         CLEAR     49  45  86 NW5       30.13F
IMPERIAL AP    PTCLDY    49  41  74 CALM      30.11F
EL CENTRO NAS  PTCLDY    50  41  71 W6        30.11F
YUMA AZ        CLOUDY    51  39  63 CALM      30.11S

$$

UPPER DESERT

CITY           SKY/WX    TMP DP  RH WIND       PRES   REMARKS
VICTORVILLE AP CLEAR     45  41  87 W3        30.21S
HESPERIA         N/A     44  41  88 CALM      30.37R
APPLE VALLEY     N/A     43  39  85 CALM      30.26R
PALMDALE       PTCLDY    46  43  89 S7        30.22S
LANCASTER      PTCLDY    47  43  86 SE5       30.21S
EDWARDS AFB    MOCLDY    39  39 100 SE3       30.20S
DAGGETT        CLEAR     42  39  89 W7        30.20S
29 PALMS N     CLEAR     43  38  82 NW3       30.24R
NEEDLES        CLEAR     47  40  76 W5        30.14S

$$

REGIONAL REPORTS

CITY           SKY/WX    TMP DP  RH WIND       PRES   REMARKS
SANTA BARBARA  MOCLDY    67  48  50 N9G21     30.11F
SANDBERG       FOG       46  43  89 N44G55    30.18F VSB 1/4
MT. WILSON       N/A     43  37  81 N6G13       N/A
LAS VEGAS NV   PTCLDY    45  36  70 S8        30.12S
PHOENIX AZ     PTCLDY    51  43  74 CALM      30.10S
TIJUANA        CLOUDY    59  52  77 CALM      30.17S
ENSENADA NW      N/A     58  32  37 CALM      30.12F

$$

OFFSHORE ISLANDS

CITY           SKY/WX    TMP DP  RH WIND       PRES   REMARKS
CATALINA ARPT  FOG       55  54  96 N6        30.15F VSB 3/4
SAN NICOLAS IS PTCLDY   N/A N/A N/A NW22      30.13F

$$

MARINE AND OFFSHORE BUOY REPORTS

STATION/POSITION SKY/WX   TEMP    WIND        PRES    SWELL
                          AIR SEA DIR/SP/G            HT/PER/DIR
                          (F)     (DEG/KT/KT) (MB)    (FT/S/D)
TANNER BANKS               63 64  310/ 19/ 29 1020.7F
S CLEMENTE BASIN           63 65  310/ 10/ 12 1020.3F   7/300/16
SAN NICOLAS IS.               63                N/A    10/300/17
SO. S. ROSA ISLA           62 62  330/ 25/ 33 1020.2F  10/16
W. S. BARBARA CH           62 63  330/ 25/ 31 1021.0F  10/300/15
S. MONICA BASIN            62 64   70/  8/ 10 1020.8F   5/250/14
S PEDRO CHANNEL               64                N/A     3/270/17
DANA POINT                    64                N/A     5/280/13
CMP PENDLETON NS              64                N/A     2/240/13
OCEANSIDE OFFSHR              64                N/A     2/260/13
TORREY PINES OTR              65                N/A     5/280/14
LA JOLLA 1                 60 64  110/  4/  5 1020.8S
MISSION BAY BUOY              64                N/A     7/270/17
SAN DIEGO BAY                 64              1021.2S
POINT LOMA SOUTH              65                N/A     5/270/18

$$



USA.gov is the U.S. government's official web portal to all federal, state and local government web resources and services.